CAPE
3298 3350 3425 3516 3470 3131 3184 3568 3536 3182 3131 2962 3380 3401 3458 3736 3544 3352 3121 3728 4318 4042 4188 4332 4290 4507 4360 4375 4290 3905 3381 3340 2630 3026 2423 2256 2146 1538 977 876 1456 1936
3334 3505 3437 3524 3559 3316 3368 3756 3796 3588 3743 3663 3293 3576 3844 4006 3724 3637 3536 3785 4071 4075 4250 4308 4305 4301 4283 4252 4346 4032 3745 3539 3335 2601 2618 2296 2336 1836 1171 1098 1079 1420
3395 3534 3634 3580 3357 3422 2608 3390 3916 4030 4079 3890 3633 3865 3952 3950 3988 3598 3991 3924 3999 3726 4389 4241 4453 4432 4354 4361 4480 4104 3830 3704 3117 2510 2719 2488 2198 2188 1666 1128 1058 1267
3505 3530 3455 3298 3251 3280 2926 2911 3388 3852 3467 3857 3504 3190 3666 3242 3666 3816 3717 4196 4071 4003 4208 4288 4296 4315 4477 4450 4660 4283 3973 3935 3321 3163 3151 2684 2267 2058 1895 1653 1310 1262
3553 3700 3702 3586 3389 3247 3007 2818 2609 3398 3359 3330 3536 3146 2917 3259 3690 3966 3818 3931 4021 4176 4385 4420 4507 4459 4560 4440 4627 4442 4057 4066 3651 3593 3612 2973 2523 2091 1844 1846 1569 1212
3600 3680 3821 3828 3694 3506 3155 2752 2744 2760 3157 2973 3388 3149 2907 2892 3853 3664 3954 3763 3747 3644 3746 4100 4301 4164 4506 4539 4556 4403 3928 3802 3687 3804 3655 3287 2406 2064 1745 2039 1790 1389
3635 3700 3888 4025 3716 3316 3176 2948 2749 2766 3028 2958 3216 3114 2965 2731 2879 3250 3645 3790 3323 3195 3060 3391 3963 3942 4135 4302 4426 4386 4265 3819 3625 3906 3665 3469 2820 2298 1828 2099 2086 1538
3379 3491 3853 3727 3398 3136 2898 2952 3140 3054 2968 3220 3154 3232 3184 2861 2744 2562 3286 3847 3830 3732 3547 3499 4028 4146 4095 4150 4388 4524 4430 3973 3587 3907 3789 3612 3220 2730 2332 2038 2433 1910
3726 3792 3762 3526 3092 2817 2391 2328 2944 3332 3199 3302 3060 2819 3190 3114 3116 2492 2726 3670 3962 4076 4066 3773 3979 3987 3856 4010 4427 4474 4408 3974 3435 3685 3810 3706 3503 2998 2707 2418 2377 2386
4086 4035 3414 3126 3165 2952 2389 1870 1958 2759 3252 3152 3067 2752 3156 3220 3307 3168 3112 3435 3894 4066 4144 3803 3789 4011 3772 3705 4004 4329 4446 4378 3828 3641 3751 3771 3621 3182 2804 2655 2481 2514
3891 3953 3869 3694 3230 2936 2872 2286 2103 2268 2753 2820 2728 2439 2696 3431 3318 3552 3854 3897 3757 4072 4351 4282 3858 3930 3894 3578 3791 4147 4387 4365 4040 3724 3717 3839 3751 3406 2991 2817 2679 2494
3755 3565 3789 3750 3154 2554 2764 2406 1980 2396 2683 3085 3013 2785 2662 2871 3658 3441 3750 4277 4021 3901 4150 4387 4190 3928 3901 3778 3613 3946 4242 4310 4148 3754 3648 3895 3827 3582 3328 2977 2819 2658
3834 3698 3830 3606 3480 3088 2769 2704 2255 1930 2096 2689 3042 2978 2713 2362 3131 3683 3550 4108 4418 4124 3937 4102 4272 4094 3910 3972 3940 3815 4072 4366 4134 3967 3616 3752 3868 3630 3378 3124 2910 2826
4097 3888 3782 3543 3466 3448 3306 2941 2523 2413 2320 2580 3436 3590 3159 2658 2540 3546 3841 3747 4279 4346 4264 4083 4225 4285 4235 4172 4157 4091 4053 4386 4420 4314 3822 3680 3742 3791 3566 3144 2976 2920
4304 4100 3798 3802 3822 3672 3525 3300 3018 2806 2746 2750 3278 3528 3364 3044 2799 2674 3689 3792 3864 4409 4508 4306 4140 4196 4200 4308 4375 4357 4188 4249 4523 4434 4252 3913 3746 3692 3707 3455 3072 2894
4394 4365 4078 4010 3932 3822 3710 3562 3310 3107 2901 2955 2959 3277 3589 3798 3477 2680 2942 4069 4067 4431 4732 4573 4242 4206 3985 4016 4068 4325 4229 3899 4139 4409 4301 4023 3898 3765 3732 3688 3220 3010
4668 4670 4548 4222 4000 3854 3897 3675 3427 3297 3080 3122 3070 3000 3236 4048 3948 3436 2548 3269 4163 4314 4703 4739 4529 4238 3926 3824 3934 3922 4159 4061 3835 4327 4425 4174 3878 3831 3752 3654 3471 3258
4855 4982 5035 4669 4172 3976 4087 4004 3583 3366 3398 3359 3250 3146 3263 3731 4160 4016 3457 2609 3570 4312 4399 4620 4698 4260 4044 4082 3942 3871 3805 4002 3847 3893 4284 4293 3914 3570 3669 3610 3594 3592
5146 5227 5283 5078 4608 4117 4105 4328 4052 3599 3493 3505 3415 3427 3386 3631 4214 4288 4160 3677 3048 4079 4558 4716 4805 4486 4261 4178 4060 3982 4007 3920 4137 3873 3738 4057 3994 3572 3246 3407 3485 3480
5516 5516 5445 5252 4995 4527 4214 4430 4458 4096 3586 3370 3472 3724 3752 3881 4013 4377 4377 4332 3933 3763 4226 4697 4931 4736 4491 4304 4082 3921 3978 3844 3990 4116 3930 3868 4095 4022 3466 3201 3454 3486
5846 6017 6089 5872 5524 4938 4584 4574 4814 4702 4209 3530 3328 3636 3849 4023 4065 4144 4486 4468 4348 4098 3929 4266 4750 4806 4736 4540 4225 3989 3810 3804 3664 3951 3949 4114 4240 4281 4066 3538 3346 3481
6085 6241 6294 6056 5965 5499 4934 4799 5069 5229 4888 4276 3608 3433 3750 4229 4357 4133 4179 4411 4541 4391 3921 3856 4121 4445 4675 4634 4472 4167 3902 3762 3550 3842 3796 4028 4284 4191 4241 4224 3882 3515
6257 6374 6348 6278 6117 5801 5393 5141 5285 5551 5320 4835 4331 4075 4112 4341 4410 4312 4257 4287 4400 4573 4473 4136 3970 3698 4162 4573 4555 4407 4111 3809 3602 3610 3872 3825 3852 4112 4264 4306 4266 3989
6463 6535 6256 6070 6227 6163 5674 5437 5478 5466 5424 5184 4728 4268 3907 4287 4469 4532 4533 4538 4343 4467 4592 4620 4625 4117 3519 3711 4326 4482 4359 4111 3734 3562 3842 3872 3697 3702 3948 4307 4434 4139
6442 6520 6373 6208 6289 6171 5901 5771 5542 5467 5398 5553 4941 4497 4080 4284 4521 4654 4775 4764 4552 4524 4407 4534 4634 4482 4064 3735 3615 4032 4255 4222 4071 3795 3792 3906 3825 3745 3696 3810 4199 4202
6130 6394 6366 6026 6088 6301 5971 5910 5707 5430 5517 5374 5157 4623 4407 4214 4289 4632 5026 5097 4817 4488 4074 4258 4511 4643 4244 4056 3926 3731 3841 4068 4094 3958 3770 3860 3931 3901 3842 3765 3752 3998
Wind_Speed
6 6 6 7 7 7 6 6 4 3 3 2 3 3 4 5 5 7 8 9 10 11 12 13 14 13 13 11 10 11 13 13 12 12 13 13 12 11 10 11 11 11
6 6 7 7 8 7 6 6 5 4 4 3 4 5 6 6 7 7 9 10 11 11 11 13 14 14 14 13 12 11 12 12 11 12 13 13 12 11 10 9 11 11
7 6 6 6 6 6 5 6 6 6 5 5 6 8 9 8 9 8 10 12 13 13 12 13 15 15 16 15 13 12 12 13 13 11 14 13 12 11 9 9 9 11
8 7 7 7 7 7 6 6 7 7 7 8 7 8 10 10 11 12 11 13 15 14 14 14 16 16 16 16 15 13 12 12 13 11 11 13 12 11 10 8 9 10
10 8 8 8 8 8 8 8 9 9 9 9 10 10 10 11 14 14 15 14 15 17 15 15 16 16 17 17 17 14 13 12 13 12 11 13 13 12 11 11 9 10
10 10 10 10 11 11 11 11 11 12 11 11 12 12 12 13 14 16 17 17 16 17 17 16 16 17 18 18 18 16 13 12 13 14 12 12 13 13 11 12 11 10
13 12 12 12 12 12 13 14 14 14 15 14 15 14 15 15 14 16 18 18 18 18 18 17 17 17 18 18 18 18 15 13 12 15 14 12 13 14 13 11 13 11
15 14 13 12 12 13 13 15 15 15 16 17 16 17 17 17 17 17 18 20 20 20 19 18 19 18 19 18 18 19 18 14 11 14 15 13 13 14 14 12 13 13
15 14 14 14 14 13 13 14 15 15 16 16 16 17 18 17 19 20 19 20 20 21 22 20 20 20 19 18 18 19 20 17 13 12 15 15 14 14 15 14 14 14
15 14 16 16 15 14 14 14 15 15 17 16 16 16 18 19 19 21 21 21 20 21 22 21 21 21 20 19 18 19 20 20 16 13 14 15 14 14 15 15 16 15
16 16 16 16 16 15 16 17 17 17 18 18 18 18 19 21 21 21 22 23 21 21 21 22 22 21 21 20 18 19 21 22 19 14 13 14 14 14 15 16 17 17
15 15 16 18 17 17 18 18 18 18 19 20 20 20 19 20 23 22 22 23 23 23 22 22 22 22 22 21 20 20 22 23 22 16 13 13 14 14 15 15 16 18
15 15 16 17 18 18 18 19 20 19 19 20 21 20 20 19 21 23 22 22 22 23 23 22 22 22 21 21 20 21 22 24 23 18 13 12 12 14 15 15 15 16
14 16 16 16 17 19 20 20 21 20 19 19 20 19 19 19 19 22 23 22 21 22 23 22 22 22 22 21 22 22 23 23 21 17 13 11 11 12 13 14 15 15
16 16 16 17 18 20 20 20 20 20 19 18 18 19 18 19 18 19 22 22 21 21 21 21 20 20 21 22 23 23 22 20 19 16 13 12 12 13 14 14 15 15
18 18 19 19 19 20 20 20 20 20 19 17 17 18 19 18 17 16 18 22 21 21 20 19 18 17 19 23 22 21 20 17 15 15 14 13 14 14 15 16 17 17
20 19 20 20 20 21 21 20 19 19 18 17 16 17 18 18 17 16 15 17 20 19 18 16 15 14 19 21 21 21 19 17 14 14 15 15 15 16 16 18 19 19
20 21 21 21 21 21 22 21 20 18 17 16 17 17 17 17 17 15 14 13 15 16 15 13 12 13 18 20 21 22 21 18 17 15 16 17 17 18 18 19 20 21
19 20 21 21 21 22 22 22 21 18 16 16 17 17 17 16 15 16 14 12 10 12 13 11 9 13 17 20 21 22 23 21 16 17 17 17 18 19 19 20 20 21
19 19 19 20 21 22 22 22 21 18 17 17 17 17 16 15 15 14 14 12 10 9 9 10 10 12 17 19 20 22 22 21 16 17 17 16 17 19 19 20 21 21
20 20 19 21 22 22 22 21 19 19 18 18 17 17 17 16 15 14 14 13 12 11 8 7 8 15 18 20 20 22 22 19 17 18 17 17 18 19 20 21 22 22
20 20 20 20 21 21 20 19 19 19 19 18 17 16 16 16 15 13 13 13 13 12 10 8 7 15 18 20 23 24 26 21 20 20 19 19 20 22 23 24 25 26
20 19 19 20 20 20 19 18 18 19 18 18 16 15 16 16 15 14 14 14 14 13 12 10 8 13 19 19 21 25 26 24 25 25 23 22 21 24 25 26 27 28
21 19 18 18 18 17 17 17 17 18 18 18 17 15 14 14 15 16 16 16 15 14 15 13 11 15 22 21 22 25 27 26 27 28 27 26 24 26 27 27 28 30
21 19 17 16 16 16 18 18 17 18 18 18 16 15 14 15 17 18 18 19 18 17 17 16 15 18 26 27 29 30 30 28 30 31 30 30 30 30 30 29 29 30
20 18 16 15 16 17 18 18 19 19 18 18 17 17 17 17 18 19 19 20 20 19 19 19 19 20 29 32 34 34 37 33 32 32 31 30 32 32 31 31 30 31
Wind_Direction
260 240 224 227 233 234 236 250 240 244 233 245 279 311 335 333 344 337 344 343 353 2 359 1 2 356 347 342 345 334 340 351 347 343 350 353 352 1 12 20 23 18
277 260 237 239 240 242 238 254 263 268 277 274 285 297 313 317 331 319 325 328 337 348 347 352 356 357 352 344 338 334 334 344 345 339 343 350 348 352 5 7 14 13
279 274 274 277 281 288 304 275 279 287 288 301 290 290 299 304 312 312 307 318 325 338 337 339 344 349 351 347 339 334 335 336 342 341 333 344 343 341 345 355 355 2
300 296 290 300 298 303 301 288 287 286 288 293 300 289 293 301 301 308 306 310 313 322 326 330 335 340 344 345 340 336 332 330 331 332 328 329 335 336 335 337 340 342
310 301 291 293 295 301 304 302 308 297 298 291 294 292 289 287 298 301 304 303 302 311 315 321 323 329 332 337 338 336 331 323 324 326 321 319 325 331 333 331 335 340
300 297 296 294 294 296 301 304 298 301 303 304 298 294 295 295 290 299 300 304 302 304 312 317 317 320 324 328 330 334 330 322 320 323 323 313 319 321 330 327 333 341
309 304 306 296 299 297 296 296 295 296 299 299 292 296 296 300 296 293 296 299 302 300 307 307 309 311 313 317 323 328 331 324 315 318 321 313 309 317 325 323 328 336
311 309 307 298 305 302 300 296 296 296 294 293 299 298 298 303 303 300 293 299 301 298 299 299 303 305 306 308 316 322 329 323 314 310 316 318 310 312 317 320 319 329
304 305 305 309 317 308 317 311 301 296 294 295 300 301 300 302 301 305 300 299 300 298 299 299 298 302 301 302 308 316 323 326 319 307 310 318 319 316 316 313 319 323
299 300 315 320 323 311 318 316 306 299 295 299 301 299 299 301 299 302 303 303 303 300 300 301 298 298 300 300 304 312 317 322 319 309 303 311 319 318 316 313 318 319
306 310 315 319 320 312 315 312 308 304 297 305 305 308 305 300 302 300 301 304 305 303 301 301 302 300 301 303 301 306 313 316 318 311 301 303 314 318 319 317 317 319
308 311 315 320 317 315 314 310 307 301 300 302 307 311 310 308 307 306 302 304 305 304 303 301 300 301 302 304 307 306 309 312 314 313 305 300 309 319 322 322 318 318
310 311 307 314 307 304 302 304 307 310 311 308 308 314 318 319 313 311 306 305 304 304 305 303 301 303 302 303 304 304 305 310 314 315 306 296 302 315 323 325 323 317
302 302 302 300 297 297 300 303 308 307 306 302 303 313 320 323 321 314 308 309 306 306 304 302 302 302 302 302 301 302 302 307 313 311 308 299 295 305 316 322 323 322
286 288 288 289 294 296 300 302 302 301 301 301 301 309 311 322 322 319 312 312 311 308 306 305 305 305 301 302 302 305 305 310 314 313 306 298 294 300 308 315 320 323
286 285 286 288 291 294 296 298 296 297 300 303 304 306 307 313 316 317 316 316 316 314 311 309 308 302 308 319 314 305 310 312 312 313 309 300 296 298 305 313 320 320
286 287 285 291 293 292 292 295 296 292 294 296 301 307 310 310 314 320 322 315 319 319 320 317 312 306 321 322 325 329 320 320 321 313 311 309 306 303 305 309 312 316
288 287 287 290 289 292 292 293 292 291 291 296 303 310 308 306 314 320 319 319 315 324 330 325 323 330 331 334 336 339 336 327 325 320 315 317 317 316 309 308 311 315
287 289 290 289 290 291 289 289 293 296 297 300 310 308 306 312 314 318 322 326 324 321 335 336 337 343 339 344 345 345 345 339 326 328 328 328 327 328 325 321 320 320
288 288 288 289 287 287 289 293 297 302 305 304 303 303 311 317 319 320 319 323 331 331 328 339 347 342 344 348 350 351 350 344 335 334 336 338 337 337 335 338 336 332
293 290 286 284 287 289 292 297 298 297 303 304 308 313 316 317 319 321 320 323 333 337 331 333 333 342 339 346 348 349 349 335 334 332 329 330 332 334 335 335 333 330
291 291 286 286 287 289 293 296 293 295 301 302 304 308 307 307 310 314 321 322 321 325 331 340 325 329 334 339 344 342 340 318 325 327 322 320 323 326 324 322 323 324
287 290 290 289 289 289 294 295 291 292 296 295 301 300 302 308 310 311 305 307 311 310 319 315 314 310 320 329 333 336 320 303 307 317 315 315 316 313 314 315 315 317
287 287 289 290 288 292 292 286 285 285 293 294 302 303 304 300 295 291 291 294 304 308 306 304 303 306 312 319 322 320 314 294 304 310 309 310 311 310 305 303 310 320
285 286 287 290 291 285 280 280 285 288 287 285 293 297 297 286 288 292 294 292 300 302 307 308 304 303 308 317 322 321 316 305 308 304 310 312 310 307 305 303 304 308
281 284 286 289 288 280 275 278 279 284 293 295 295 297 296 297 297 297 301 298 298 302 304 305 307 306 304 320 322 324 326 314 308 308 313 315 307 303 302 304 307 305